Simultaneous Nadir Overpasses (SNOs) Predictions

Prediction of SNOs between GOES-17 and LANDSAT-8 Satellite Orbit:

Table of predicted SNOs for the next 14.0 days since TLE Epoch: 8/10/2024
Index Date Time (GOES-17) GOES-17 Lat,Lon LANDSAT-8 Lat,Lon Distance(km) Time Diff (sec)
1 08/11/2024 05:00:34 0.00,-104.69 0.45,-102.55 242.93 80
2 08/11/2024 17:21:50 0.00,-104.73 0.65,-107.71 339.89 80
3 08/13/2024 17:09:41 0.00,-104.73 0.01,-104.76 4.28 80
4 08/15/2024 17:00:11 0.00,-104.72 -0.62,-101.81 331.22 80
5 08/16/2024 05:21:35 -0.00,-104.69 -0.52,-106.99 262.63 80
6 08/18/2024 05:06:45 -0.00,-104.68 0.15,-104.04 72.95 80
7 08/20/2024 04:54:33 0.01,-104.68 0.74,-101.08 408.93 80
8 08/20/2024 17:18:29 -0.00,-104.71 0.31,-106.24 173.89 80
9 08/22/2024 17:03:37 -0.01,-104.71 -0.33,-103.28 162.84 80
10 08/23/2024 05:27:39 -0.00,-104.68 -0.83,-108.45 430.26 80
